OBJECT G, 44316

Orbit data source: Space-Track

You're viewing an uncataloged RSO

Recently launched and/or uncataloged RSOs may have evolving metadata. Metadata may include the following, but is not limited to: Owner, Manufacturer, Bus, Motor, and Mission.

OBJECT G, 44316 is a Chinese satellite in LEO that was launched on Wed, 05 Jun 2019 UTC via a CHANG ZHENG 11 launch vehicle from the Yellow Sea Launch Area, China (YSLA). Unknown objects in Earth's orbit typically refer to objects detected orbiting the Earth but have not yet been identified or cataloged. These objects could be anything from previously untracked satellites, spent rocket stages, debris from satellite collisions, or even natural meteoroids temporarily captured by Earth's gravity.

Loading next visibility...
Identifier
44316, 2019-032G
Orbit
LEO
Country
Flag of CNCN / PRC
Related business
None
Manufacturer
Unknown
Mission
Operational Commercial Technology
Bus & Motor
Unknown
Mass
Unknown
Launch date (UTC)
2019-06-05 (7 years ago)
Launch vehicle
CHANG ZHENG 11
Launch site
Yellow Sea Launch Area, China (YSLA)
Object type
Unknown
Shape & HBR
Box, 0.9 m
Radar Cross Section
1.500 m², Medium (>0.1 m² and < 1m²)

Expand to show TLE details & history
Last TLE update: 7 hours ago

TLE from 7 hours ago
0 OBJECT G
1 44316U 19032G   26258.28773012  .00007497  00000-0  27309-3 0  9997
2 44316  44.9709 288.5191 0009611  41.4408 318.7202 15.28772870400863
Epoch: 2026-09-15T06:54Z
TLE epoch observation values (Epoch: 2026-09-15T06:54:19.882Z)
Latitude
-0.00005°
Longitude
-169.31962°
Altitude
474.525 km
Speed
7.633 km/s
True Right ascension
19h 14m 04s
True Declination
0° 00' 00"
Sunlit
Object was in full shadow at epoch
Visualization orbit readout
Latitude
Unknown
Longitude
Unknown
Altitude
Unknown
Speed
Unknown
Apparent Right ascension
Unknown
Apparent Declination
Unknown
Sunlit
N/A
Visualization observer readout
Local Sidereal Time
06:15:07
Azimuth
Unknown
Elevation
Unknown
Doppler factor
Unknown
Orbital elements
Apogee altitude
487.687 km
Perigee altitude
474.502 km
Semi-major axis
6,859.231 km
Eccentricity
0.00096
Inclination
44.9709°
RAAN
288.5191°
Arg. of periapsis
41.4408°
True anomaly
318.64747°
Mean anomaly
318.7202°
Eccentric anomaly
318.68384°
Mean motion
3.82059 °/min
Orbital period
94.23 mins
BSTAR
0.00027309
Loading maneuver chart data...
Computing Atmospheric mass density...
Loading historical data...
Loading historical data...
Loading historical data...
Loading historical data...
Loading historical data...
Loading historical data...
Loading historical data...

Documentation

Showing up to 5 results
|